FW3224 Weather Reports


time (UTC)temp
F
wind
direction
speed
knots
gust
knots
rain 1hr
in
rain 24hr
in
rain mn
in
humidity
%
barometer
mb
20260901083049 70 279 2.6 8.7 0.00 0.01 0.01 51 1019.7
20260901082548 70 303 3.5 8.7 0.00 0.01 0.01 50 1019.7
20260901082048 71 289 1.7 8.7 0.00 0.01 0.01 50 1019.6
20260901081553 71 254 2.6 7.8 0.00 0.01 0.01 50 1019.6
20260901081048 71 286 3.5 7.8 0.00 0.01 0.01 49 1019.6
20260901080551 71 276 3.5 7.8 0.00 0.01 0.01 49 1019.5
20260901080047 71 281 3.5 7.8 0.00 0.01 0.01 49 1019.4
20260901075548 72 324 3.5 9.6 0.00 0.01 0.01 48 1019.3
20260901075047 72 293 4.3 12.2 0.00 0.01 0.01 48 1019.3
20260901074547 72 256 3.5 12.2 0.00 0.01 0.01 47 1019.2
20260901074046 72 250 3.5 12.2 0.00 0.01 0.01 47 1019.2
20260901073546 72 263 6.1 10.4 0.00 0.01 0.01 47 1019.1
20260901073047 73 236 4.3 11.3 0.00 0.01 0.01 47 1019.1
20260901072546 73 285 4.3 11.3 0.00 0.01 0.01 46 1019.0
20260901072045 74 253 6.1 10.4 0.00 0.01 0.01 46 1019.1
20260901071546 74 259 5.2 10.4 0.00 0.01 0.01 46 1019.1
20260901071045 74 266 3.5 7.8 0.00 0.01 0.01 45 1019.1
20260901070545 75 278 1.7 9.6 0.00 0.01 0.01 45 1019.1
20260901070045 75 256 2.6 9.6 0.00 0.01 0.01 44 1019.1
20260901065545 75 261 2.6 9.6 0.00 0.01 0.01 43 1019.1
20260901065045 75 304 3.5 9.6 0.00 0.01 0.01 41 1019.0
20260901064544 75 256 3.5 16.5 0.00 0.01 0.01 41 1019.0
20260901064045 75 244 7.0 16.5 0.00 0.01 0.01 41 1019.1
20260901063543 75 260 5.2 14.8 0.00 0.01 0.01 41 1019.1
20260901063044 76 294 7.0 14.8 0.00 0.01 0.01 41 1019.1
20260901062545 76 234 6.1 12.2 0.00 0.01 0.01 41 1019.1
20260901062043 76 270 5.2 12.2 0.00 0.01 0.01 40 1019.1
20260901061543 76 219 6.1 10.4 0.00 0.01 0.01 40 1019.0
20260901061044 76 290 4.3 15.6 0.00 0.01 0.01 39 1019.1
20260901060543 76 279 7.0 15.6 0.00 0.01 0.01 39 1019.0
20260901060041 76 284 6.1 13.9 0.00 0.01 0.01 39 1019.1
20260901055541 76 250 7.8 14.8 0.00 0.01 0.01 39 1019.2
20260901055041 76 242 8.7 19.1 0.00 0.01 0.01 38 1019.3
20260901054544 76 261 8.7 18.2 0.00 0.01 0.01 38 1019.3
20260901054042 76 226 7.8 19.1 0.00 0.01 0.01 37 1019.4
20260901053543 76 298 10.4 19.1 0.00 0.01 0.01 37 1019.4
20260901053104 76 259 7.0 18.2 0.00 0.01 0.01 38 1019.4
20260901052544 76 268 9.6 16.5 0.00 0.01 0.01 38 1019.4
20260901052039 76 237 7.8 17.4 0.00 0.01 0.01 38 1019.4
20260901051559 76 235 9.6 17.4 0.00 0.01 0.01 37 1019.4
20260901051041 76 265 7.8 16.5 0.00 0.01 0.01 38 1019.4
20260901050538 76 336 6.1 12.2 0.00 0.01 0.01 39 1019.5
20260901050037 76 282 7.8 16.5 0.00 0.01 0.01 39 1019.6
20260901045537 76 253 6.1 13.9 0.00 0.01 0.01 39 1019.6
20260901045036 76 284 8.7 18.2 0.00 0.01 0.01 38 1019.6
20260901044548 76 294 10.4 18.2 0.00 0.01 0.01 38 1019.6
20260901044035 76 245 7.0 15.6 0.00 0.01 0.01 39 1019.6
20260901043536 75 280 8.7 20.0 0.00 0.01 0.01 39 1019.6
20260901043034 75 258 11.3 20.0 0.00 0.01 0.01 39 1019.8
20260901042532 76 255 9.6 16.5 0.00 0.01 0.01 38 1019.8
20260901042032 76 309 7.8 14.8 0.00 0.01 0.01 39 1019.8
20260901041533 76 285 7.8 14.8 0.00 0.01 0.01 40 1019.9
20260901041030 76 273 6.1 16.5 0.00 0.01 0.01 40 1019.9
20260901040530 76 259 7.8 16.5 0.00 0.01 0.01 40 1020.0
20260901040028 75 254 6.1 13.0 0.00 0.01 0.01 41 1020.1
20260901035531 75 304 6.1 14.8 0.00 0.01 0.01 40 1020.1
20260901035026 75 275 7.8 15.6 0.00 0.01 0.01 40 1020.2
20260901034529 75 250 8.7 15.6 0.00 0.01 0.01 40 1020.3
20260901034024 75 250 7.0 13.9 0.00 0.01 0.01 41 1020.3
20260901033523 75 227 7.0 13.9 0.00 0.01 0.01 41 1020.4
20260901033027 75 256 6.1 13.9 0.00 0.01 0.01 41 1020.6
20260901032521 75 269 6.1 13.9 0.00 0.01 0.01 41 1020.6
20260901032023 74 260 6.1 13.9 0.00 0.01 0.01 43 1020.8
20260901031523 74 297 6.1 13.9 0.00 0.01 0.01 43 1020.9
20260901031020 74 283 7.8 13.9 0.00 0.01 0.01 43 1020.9
20260901030517 74 245 8.7 13.0 0.00 0.01 0.01 43 1021.1
20260901030015 74 262 7.8 13.0 0.00 0.01 0.01 45 1021.3
20260901025513 74 280 6.1 13.0 0.00 0.01 0.01 46 1021.3
20260901025013 74 222 7.0 13.0 0.00 0.01 0.01 46 1021.4
20260901024511 73 272 5.2 14.8 0.00 0.01 0.01 47 1021.6
20260901024009 73 284 8.7 13.9 0.00 0.01 0.01 46 1021.7
20260901023508 73 251 7.0 13.9 0.00 0.01 0.01 46 1021.7
20260901023011 73 254 7.8 15.6 0.00 0.01 0.01 46 1021.9
20260901022506 73 276 7.8 15.6 0.00 0.01 0.01 46 1022.0
20260901022005 73 228 5.2 12.2 0.00 0.01 0.01 47 1022.1
20260901021510 73 275 6.1 17.4 0.00 0.01 0.01 48 1022.2
20260901021004 73 292 7.8 17.4 0.00 0.01 0.01 47 1022.4
20260901020503 73 277 4.3 14.8 0.00 0.01 0.01 49 1022.6
20260901020101 72 276 7.0 17.4 0.00 0.01 0.01 49 1022.7
20260901015558 72 284 7.8 17.4 0.00 0.01 0.01 49 1022.8
20260901015057 71 285 8.7 14.8 0.00 0.01 0.01 49 1023.0
20260901014559 72 251 7.0 13.0 0.00 0.01 0.01 50 1023.1
20260901014054 72 273 7.0 12.2 0.00 0.01 0.01 50 1023.3
20260901013553 72 289 4.3 13.0 0.00 0.01 0.01 53 1023.4
20260901013052 71 245 7.0 13.0 0.00 0.01 0.01 52 1023.6
20260901012554 71 281 4.3 10.4 0.00 0.01 0.01 52 1023.8
20260901012049 71 286 3.5 12.2 0.00 0.01 0.01 53 1023.9
20260901011547 70 263 5.2 12.2 0.00 0.01 0.01 53 1024.0
20260901011046 70 304 5.2 11.3 0.00 0.01 0.01 53 1024.1
20260901010545 70 215 5.2 13.0 0.00 0.01 0.01 53 1024.2
20260901010043 70 234 5.2 13.0 0.00 0.01 0.01 53 1024.3
20260901005542 69 307 4.3 11.3 0.00 0.01 0.01 54 1024.5
20260901005041 69 269 6.1 11.3 0.00 0.01 0.01 56 1024.6
20260901004539 68 293 6.1 11.3 0.00 0.01 0.01 58 1024.6
20260901004038 68 238 6.1 9.6 0.00 0.01 0.01 60 1024.7
20260901003537 67 282 3.5 9.6 0.00 0.01 0.01 61 1024.8
20260901003037 67 263 4.3 9.6 0.00 0.01 0.01 63 1024.9
20260901002537 66 281 3.5 10.4 0.00 0.01 0.01 63 1024.9
20260901002036 66 290 4.3 10.4 0.00 0.01 0.01 63 1025.0
20260901001532 66 282 2.6 8.7 0.00 0.01 0.01 64 1025.1
20260901001031 65 339 3.5 8.7 0.00 0.01 0.01 65 1025.1
20260901000529 65 277 2.6 7.8 0.00 0.01 0.01 66 1025.1
20260901000027 65 319 3.5 8.7 0.00 0.01 0.01 66 1025.2
20260831235527 64 318 5.2 8.7 0.00 0.01 0.01 67 1025.2
20260831235026 64 275 2.6 7.8 0.00 0.01 0.01 70 1025.3
20260831234523 63 250 2.6 8.7 0.00 0.01 0.01 71 1025.4
20260831234024 63 298 2.6 9.6 0.00 0.01 0.01 72 1025.4
20260831233521 62 277 3.5 7.8 0.00 0.01 0.01 75 1025.6
20260831233021 61 258 2.6 7.0 0.00 0.01 0.01 78 1025.6
20260831232520 60 316 2.6 7.0 0.00 0.01 0.01 78 1025.8
20260831232019 60 302 3.5 7.8 0.00 0.01 0.01 79 1025.9
20260831231516 59 321 2.6 5.2 0.00 0.01 0.01 80 1025.9
20260831231015 59 263 2.6 7.8 0.00 0.01 0.01 80 1026.0
20260831230514 58 278 3.5 7.8 0.00 0.01 0.01 81 1026.1
20260831230012 58 309 3.5 7.0 0.00 0.01 0.01 82 1026.2
20260831225512 58 299 2.6 8.7 0.00 0.01 0.01 82 1026.2
20260831225009 57 317 3.5 7.8 0.00 0.01 0.01 83 1026.3
20260831224508 57 283 4.3 7.0 0.00 0.01 0.01 83 1026.3
20260831224008 57 298 3.5 7.0 0.00 0.01 0.01 84 1026.4
20260831223506 56 259 1.7 5.2 0.00 0.01 0.01 86 1026.5
20260831223006 56 290 1.7 7.0 0.00 0.01 0.01 87 1026.5
20260831222507 55 309 2.6 7.0 0.00 0.01 0.01 88 1026.5
20260831222005 55 269 2.6 5.2 0.00 0.01 0.01 89 1026.5
20260831221508 55 329 2.6 5.2 0.00 0.01 0.01 90 1026.6
20260831221004 54 328 1.7 4.3 0.00 0.01 0.01 91 1026.6
20260831220504 53 319 2.6 4.3 0.00 0.01 0.01 92 1026.6
20260831220004 53 315 1.7 3.5 0.00 0.01 0.01 93 1026.6
20260831215504 52 322 1.7 3.5 0.00 0.01 0.01 93 1026.6
20260831215008 52 319 1.7 3.5 0.00 0.01 0.01 94 1026.6
20260831214503 51 307 1.7 4.3 0.00 0.01 0.01 95 1026.6
20260831214003 51 296 1.7 4.3 0.00 0.01 0.01 95 1026.5
20260831213503 51 306 0.9 2.6 0.00 0.01 0.01 95 1026.4
20260831213004 50 317 1.7 2.6 0.00 0.01 0.01 95 1026.4
20260831212502 50 285 0.9 2.6 0.00 0.01 0.01 95 1026.5
20260831212001 50 289 0.0 0.9 0.00 0.01 0.01 95 1026.4
20260831211501 49 289 0.0 2.6 0.00 0.01 0.01 95 1026.4
20260831211003 49 300 0.9 2.6 0.00 0.01 0.01 95 1026.4
20260831210501 49 283 0.9 2.6 0.00 0.01 0.01 95 1026.3
20260831205600 49 275 0.9 2.6 0.00 0.01 0.01 95 1026.2
20260831205059 49 271 0.9 3.5 0.00 0.01 0.01 95 1026.2
20260831204601 49 263 0.9 3.5 0.00 0.01 0.01 95 1026.2
20260831204059 49 287 1.7 2.6 0.00 0.01 0.01 95 1026.2
20260831203558 49 277 0.9 3.5 0.00 0.01 0.01 94 1026.2
20260831203105 50 275 0.9 4.3 0.00 0.01 0.01 94 1026.1
20260831202558 50 259 1.7 4.3 0.00 0.01 0.01 94 1026.1
20260831202055 50 289 1.7 4.3 0.00 0.01 0.01 95 1026.0
20260831201554 50 294 0.9 3.5 0.00 0.01 0.01 94 1026.0
20260831201054 50 317 0.0 0.0 0.00 0.01 0.01 94 1026.0
20260831200553 50 317 0.0 0.0 0.00 0.01 0.01 94 1026.0
20260831200056 51 317 0.0 0.0 0.00 0.01 0.01 94 1026.0
20260831195550 51 317 0.0 0.0 0.00 0.01 0.01 94 1025.9
20260831195051 51 317 0.0 0.0 0.00 0.01 0.01 94 1026.0
20260831194553 51 317 0.0 0.0 0.00 0.01 0.01 94 1025.9
20260831194049 51 317 0.0 0.0 0.00 0.01 0.01 94 1025.8
20260831193547 52 317 0.0 0.0 0.00 0.01 0.01 93 1025.8
20260831193047 52 317 0.0 0.0 0.00 0.01 0.01 93 1025.7
20260831192545 52 317 0.0 0.0 0.00 0.01 0.01 94 1025.7
20260831192048 53 317 0.0 0.0 0.00 0.01 0.01 94 1025.7
20260831191544 53 317 0.0 0.0 0.00 0.01 0.01 94 1025.7
20260831191044 53 317 0.0 0.9 0.00 0.01 0.01 94 1025.7
20260831190544 53 315 0.0 3.5 0.00 0.01 0.01 94 1025.7
20260831185543 53 322 0.0 2.6 0.00 0.01 0.01 94 1025.7
20260831185043 53 321 0.0 3.5 0.00 0.01 0.01 94 1025.7
20260831184542 53 316 0.9 3.5 0.00 0.01 0.01 94 1025.7
20260831184042 53 305 0.9 3.5 0.00 0.01 0.01 94 1025.8
20260831183542 53 298 0.9 2.6 0.00 0.01 0.01 94 1025.7
20260831183042 53 319 0.0 2.6 0.00 0.01 0.01 93 1025.8
20260831182541 53 350 0.0 1.7 0.00 0.01 0.01 93 1025.8
20260831182041 53 323 0.0 1.7 0.00 0.01 0.01 94 1025.7
20260831181541 53 323 0.0 1.7 0.00 0.01 0.01 93 1025.8
20260831181040 53 290 0.0 1.7 0.00 0.01 0.01 93 1025.8
20260831180049 53 290 0.0 1.7 0.00 0.01 0.01 93 1025.8
20260831175547 53 290 0.0 1.7 0.00 0.02 0.01 93 1025.8
20260831175046 53 290 0.0 1.7 0.01 0.02 0.01 93 1025.8
20260831174547 53 286 0.0 2.6 0.01 0.02 0.01 93 1025.8
20260831174046 53 286 0.9 2.6 0.01 0.02 0.01 93 1025.8
20260831173548 53 288 0.0 1.7 0.01 0.02 0.01 92 1025.8
20260831173046 54 288 0.0 2.6 0.01 0.02 0.01 92 1025.8
20260831172544 54 288 0.0 2.6 0.01 0.02 0.01 92 1025.8
20260831172047 54 287 0.9 2.6 0.01 0.02 0.01 92 1025.9
20260831171543 54 287 0.0 2.6 0.01 0.02 0.01 92 1025.9
20260831171042 54 287 0.0 1.7 0.01 0.02 0.01 92 1025.9
20260831170541 54 287 0.0 2.6 0.01 0.02 0.01 92 1025.9
20260831170040 54 287 0.0 2.6 0.01 0.02 0.01 92 1025.9
20260831165540 55 305 0.0 0.0 0.01 0.02 0.01 92 1025.9
20260831165038 55 298 0.0 0.0 0.00 0.01 0.00 91 1026.0
20260831164554 55 285 0.0 1.7 0.00 0.01 0.00 91 1026.0
20260831164039 55 285 0.0 1.7 0.00 0.01 0.00 91 1026.1
20260831163536 55 289 0.0 2.6 0.00 0.01 0.00 91 1026.3
20260831163040 55 298 0.9 2.6 0.00 0.01 0.00 91 1026.3
20260831162534 56 300 0.9 2.6 0.00 0.01 0.00 91 1026.4
20260831162035 56 288 0.0 1.7 0.00 0.01 0.00 91 1026.6
20260831161534 56 291 0.0 1.7 0.00 0.01 0.00 91 1026.6
20260831161032 56 302 0.0 1.7 0.00 0.01 0.00 92 1026.6
20260831160532 56 301 0.0 3.5 0.00 0.01 0.00 92 1026.7
20260831160031 56 303 1.7 3.5 0.00 0.01 0.00 92 1026.8
20260831155530 56 304 1.7 2.6 0.00 0.01 0.00 93 1026.8
20260831155029 56 310 1.7 2.6 0.00 0.01 0.00 93 1026.8
20260831154530 55 325 0.9 3.5 0.00 0.01 0.00 93 1026.9
20260831154028 55 327 0.9 3.5 0.00 0.01 0.00 93 1027.0
20260831153525 55 332 0.0 2.6 0.00 0.01 0.00 93 1027.1
20260831153027 55 326 0.9 3.5 0.00 0.01 0.00 93 1027.1
20260831152524 55 306 0.9 3.5 0.00 0.01 0.00 94 1027.2
20260831152024 55 319 0.9 3.5 0.00 0.01 0.00 94 1027.3
20260831151524 55 317 1.7 3.5 0.00 0.01 0.00 94 1027.3
20260831151023 55 331 0.9 3.5 0.00 0.01 0.00 94 1027.4
20260831150524 55 323 1.7 3.5 0.00 0.01 0.00 94 1027.4
20260831150021 55 280 0.0 1.7 0.00 0.01 0.00 94 1027.4
20260831145520 55 280 0.0 2.6 0.00 0.01 0.00 94 1027.5
20260831145021 55 303 0.0 3.5 0.00 0.01 0.00 94 1027.5
20260831144520 55 280 0.0 2.6 0.00 0.01 0.00 94 1027.5
20260831144021 55 284 0.9 3.5 0.00 0.01 0.00 94 1027.6
20260831143519 55 278 1.7 3.5 0.00 0.01 0.00 94 1027.7
20260831143021 55 261 0.9 3.5 0.00 0.01 0.00 94 1027.6
20260831142518 55 272 0.9 3.5 0.00 0.01 0.00 94 1027.7
20260831142017 55 292 0.0 2.6 0.00 0.01 0.00 94 1027.7
20260831141517 55 288 0.0 2.6 0.00 0.01 0.00 94 1027.6
20260831141017 55 294 0.0 0.0 0.00 0.01 0.00 94 1027.6
20260831140516 55 294 0.0 0.0 0.00 0.01 0.00 94 1027.7
20260831140014 55 294 0.0 0.0 0.00 0.01 0.00 94 1027.7
20260831135514 55 294 0.0 0.0 0.00 0.01 0.01 94 1027.7
20260831135014 55 294 0.0 0.0 0.00 0.01 0.01 93 1027.8
20260831134513 55 294 0.0 0.0 0.00 0.01 0.01 93 1027.8
20260831134012 55 294 0.0 0.0 0.00 0.01 0.01 93 1027.8
20260831133516 55 294 0.0 0.0 0.00 0.01 0.01 93 1027.9
20260831133012 55 294 0.0 0.0 0.00 0.01 0.01 93 1027.9
20260831132512 55 294 0.0 0.0 0.00 0.01 0.01 93 1028.0
20260831132012 55 294 0.0 0.0 0.00 0.01 0.01 93 1028.0
20260831131512 56 294 0.0 0.0 0.00 0.01 0.01 92 1028.1
20260831131012 56 294 0.0 0.0 0.00 0.01 0.01 92 1028.2
20260831130511 56 294 0.0 0.0 0.00 0.01 0.01 92 1028.2
20260831130015 56 292 0.0 0.0 0.00 0.01 0.01 92 1028.2
20260831125511 56 292 0.0 0.0 0.00 0.01 0.01 92 1028.3
20260831125012 56 292 0.0 0.0 0.00 0.01 0.01 92 1028.3
20260831124510 57 292 0.0 0.0 0.00 0.01 0.01 92 1028.3
20260831124010 57 292 0.0 0.0 0.00 0.01 0.01 92 1028.3
20260831123514 57 292 0.0 0.0 0.00 0.01 0.01 92 1028.3
20260831123010 57 292 0.0 0.0 0.00 0.01 0.01 92 1028.4
20260831122510 57 292 0.0 0.0 0.00 0.01 0.01 92 1028.4
20260831122010 57 281 0.0 0.0 0.00 0.01 0.01 91 1028.5
20260831121510 58 289 0.0 0.0 0.00 0.01 0.01 91 1028.5
20260831121010 58 304 0.0 0.0 0.00 0.01 0.01 91 1028.6
20260831120510 58 289 0.0 0.0 0.00 0.01 0.01 91 1028.6
20260831120015 58 289 0.0 3.5 0.00 0.01 0.01 91 1028.6
20260831115508 58 317 0.9 3.5 0.00 0.01 0.01 91 1028.7
20260831115009 58 302 0.0 2.6 0.00 0.01 0.01 90 1028.8
20260831114523 58 232 0.0 2.6 0.00 0.01 0.01 90 1028.8
20260831114008 58 245 0.0 2.6 0.00 0.01 0.01 90 1028.8
20260831113508 59 19 0.0 1.7 0.00 0.01 0.01 90 1028.8
20260831113008 59 292 0.0 4.3 0.00 0.01 0.01 90 1028.9
20260831112508 59 277 0.0 4.3 0.00 0.01 0.01 89 1028.9
20260831112007 59 313 0.9 4.3 0.00 0.01 0.01 89 1028.9
20260831111506 59 258 0.0 3.5 0.00 0.01 0.01 89 1028.9
20260831111011 59 343 0.9 3.5 0.00 0.01 0.01 89 1028.8
20260831110511 59 309 0.0 3.5 0.00 0.01 0.01 89 1028.8
20260831110006 59 355 0.9 5.2 0.00 0.01 0.01 89 1028.8
20260831105506 59 263 0.9 4.3 0.00 0.01 0.01 89 1028.8
20260831105006 59 286 1.7 4.3 0.00 0.01 0.01 88 1028.8
20260831104506 59 11 0.0 3.5 0.00 0.01 0.01 88 1028.8
20260831104005 59 336 0.9 3.5 0.00 0.01 0.01 88 1028.8
20260831103507 59 284 0.0 4.3 0.00 0.01 0.01 87 1028.8
20260831103005 59 297 0.9 4.3 0.00 0.01 0.01 87 1028.8
20260831102505 59 288 0.9 3.5 0.00 0.01 0.01 87 1028.8
20260831102005 59 254 0.9 3.5 0.00 0.01 0.01 87 1028.8
20260831101505 59 267 0.0 2.6 0.00 0.01 0.01 86 1028.8
20260831101005 60 275 0.9 4.3 0.00 0.01 0.01 86 1028.8
20260831100504 60 317 0.9 4.3 0.00 0.01 0.01 86 1028.9
20260831100004 60 327 0.9 3.5 0.00 0.01 0.01 86 1028.9
20260831095503 60 304 0.9 2.6 0.00 0.01 0.01 86 1028.9
20260831095003 60 271 0.9 3.5 0.00 0.01 0.01 86 1028.8
20260831094504 60 325 0.9 3.5 0.00 0.01 0.01 86 1028.9
20260831094003 60 279 0.0 3.5 0.00 0.01 0.01 85 1028.9
20260831093506 60 282 0.9 3.5 0.00 0.01 0.01 86 1028.9
20260831093004 60 340 0.0 4.3 0.00 0.01 0.01 86 1028.9
20260831092504 60 272 0.9 4.3 0.00 0.01 0.01 85 1028.9
20260831092002 60 347 0.0 2.6 0.00 0.01 0.01 85 1028.9
20260831091507 60 286 0.0 6.1 0.00 0.01 0.01 85 1028.9
20260831091002 60 311 1.7 6.1 0.00 0.01 0.01 85 1028.9
20260831090502 60 290 0.9 3.5 0.00 0.01 0.01 85 1028.8
20260831090002 61 304 0.0 5.2 0.00 0.01 0.01 85 1028.8
20260831085501 61 281 0.9 5.2 0.00 0.01 0.01 84 1028.8
20260831085001 61 296 0.9 3.5 0.00 0.01 0.01 84 1028.7
20260831084501 61 285 0.0 3.5 0.00 0.01 0.01 84 1028.6
20260831084002 61 13 0.9 3.5 0.00 0.01 0.01 84 1028.6
20260831083502 61 339 0.0 3.5 0.00 0.01 0.01 83 1028.6